Location: Babice
(50.3480°N, 22.9363°E)
Time: 00:47:18
(UTC+00:00)

BREEZE-M DEB (TANK) - Pass Details

Date: 14 July 2020
Orbit: 427 x 13239 km, 46.0° (Epoch: 06 August)

Event Time Altitude Azimuth Distance (km) Brightness Sun altitude
Rises 00:11:43 0° 261° (W) 5,458 7.6 -14.9°
Reaches altitude 10° 00:16:38 10° 258° (WSW) 3,245 6.4 -14.5°
Maximum altitude 00:22:41 49° 184° (S) 795 3.2 -14.1°
Drops below altitude 10° 00:25:38 10° 107° (ESE) 1,602 5.3 -13.9°
Sets 00:27:17 0° 101° (E) 2,388 6.3 -13.8°
